Waarnemingen

Advertentie
Mijn weer
A12-CPP, Nederland (6205): temperatuur & dauwpunt: 18.02.2017 09:00:00 - 24.02.2017 09:00:00 (CET)A12-CPP, Nederland (6205): windsnelheid & windstoten: 18.02.2017 09:00:00 - 24.02.2017 09:00:00 (CET)A12-CPP, Nederland (6205): windrichting: 18.02.2017 09:00:00 - 24.02.2017 09:00:00 (CET)A12-CPP, Nederland (6205): luchtdruk: 18.02.2017 09:00:00 - 24.02.2017 09:00:00 (CET)A12-CPP, Nederland (6205): zicht: 18.02.2017 09:00:00 - 24.02.2017 09:00:00 (CET)
Datum & Tijd tt [°C] td [°C] ff [km/u] ff [kn] fx [km/u] fx [kn] dd ppp [hPa] vv [km]
24.02.2017 09:00:00 4,3 -0,2 41 22 43 23 N 1007,3 10
24.02.2017 08:00:00 4,4 0,0 48 26 50 27 NNW 1006,0 10
24.02.2017 07:00:00 4,0 0,1 50 27 54 29 N 1004,6 10
24.02.2017 06:00:00 4,1 0,2 44 24 61 33 NNW 1003,6 10
24.02.2017 05:00:00 4,8 -1,6 46 25 65 35 - 1002,0 10
24.02.2017 04:00:00 4,5 -0,4 46 25 61 33 NNW 1001,0 10
24.02.2017 03:00:00 5,0 -2,6 61 33 61 33 N 999,4 10
24.02.2017 02:00:00 4,8 -2,5 63 34 68 37 N 997,7 10
24.02.2017 01:00:00 5,0 -5,1 74 40 76 41 N 995,6 10
24.02.2017 00:00:00 4,7 -4,6 70 38 72 39 N 993,6 10
23.02.2017 23:00:00 4,6 -5,1 70 38 76 41 N 991,9 10
23.02.2017 22:00:00 4,6 -3,4 70 38 76 41 N 990,2 10
23.02.2017 21:00:00 4,6 -2,7 61 33 76 41 N 988,7 10
23.02.2017 20:00:00 4,6 -1,6 59 32 79 43 NNO 986,3 10
23.02.2017 19:00:00 2,6 1,6 78 42 86 47 NNO 983,2 6
23.02.2017 18:00:00 3,8 1,6 78 42 79 43 NO 980,1 2,8
23.02.2017 17:00:00 3,1 1,4 74 40 72 39 ONO 977,5 3,8
23.02.2017 16:00:00 3,7 2,2 61 33 61 33 ONO 975,7 5
23.02.2017 15:00:00 5,4 4,1 21 11 32 18 ONO 975,9 9
23.02.2017 14:00:00 5,6 4,7 35 19 54 29 O 976,8 2,2
23.02.2017 13:00:00 5,0 3,8 61 33 72 39 OZO 978,2 5
23.02.2017 12:00:00 4,4 3,0 54 29 61 33 OZO 981,2 5
23.02.2017 11:00:00 4,0 2,6 44 24 54 29 OZO 983,9 6
23.02.2017 10:00:00 3,8 2,0 39 21 43 23 ZO 987,2 6
23.02.2017 09:00:00 4,1 1,5 29 16 32 18 ZZO 989,7 10
23.02.2017 08:00:00 4,6 1,4 26 14 29 16 Z 991,1 8
23.02.2017 07:00:00 5,7 4,0 21 11 22 12 ZZW 992,8 10
23.02.2017 06:00:00 5,7 3,8 18 10 18 10 ZW 993,9 10
23.02.2017 05:00:00 5,8 2,9 18 10 18 10 WZW 995,4 10
23.02.2017 04:00:00 5,9 2,7 21 11 29 16 WNW 996,1 10
23.02.2017 03:00:00 6,2 2,1 34 18 36 19 NW 996,7 10
23.02.2017 02:00:00 6,2 2,3 39 21 43 23 NW 997,1 10
23.02.2017 01:00:00 6,5 1,8 46 25 54 29 NW 997,1 10
23.02.2017 00:00:00 6,7 2,0 52 28 54 29 NW 996,9 10
22.02.2017 23:00:00 6,8 2,9 52 28 54 29 W 996,8 10
22.02.2017 22:00:00 6,9 2,8 54 29 58 31 W 996,4 10
22.02.2017 21:00:00 7,0 2,8 59 32 58 31 W 996,1 10
22.02.2017 20:00:00 6,8 3,2 63 34 61 33 W 995,9 10
22.02.2017 19:00:00 6,8 3,4 57 31 61 33 W 995,4 10
22.02.2017 18:00:00 6,8 3,2 63 34 65 35 W 994,8 10
22.02.2017 17:00:00 6,7 3,1 63 34 68 37 W 994,7 10
22.02.2017 16:00:00 6,7 2,8 65 35 65 35 WZW 994,7 10
22.02.2017 15:00:00 6,6 2,8 65 35 68 37 WZW 994,9 10
22.02.2017 14:00:00 6,6 2,4 67 36 68 37 W 995,2 10
22.02.2017 13:00:00 6,5 2,3 61 33 65 35 WZW 995,5 10
22.02.2017 12:00:00 6,6 2,0 63 34 65 35 W 995,7 10
22.02.2017 11:00:00 6,5 2,2 59 32 65 35 W 995,5 10
22.02.2017 10:00:00 6,5 2,1 57 31 61 33 W 995,7 10
22.02.2017 09:00:00 6,6 2,0 55 30 58 31 W 995,8 10
22.02.2017 08:00:00 6,7 2,3 55 30 58 31 W 995,4 10
22.02.2017 07:00:00 6,9 3,3 54 29 54 29 W 994,7 10
22.02.2017 06:00:00 7,4 3,7 57 31 58 31 WNW 994,3 10
22.02.2017 05:00:00 8,0 5,7 63 34 61 33 W 994,1 10
22.02.2017 04:00:00 7,9 6,4 63 34 68 37 WZW 993,4 8
22.02.2017 03:00:00 8,2 7,1 70 38 76 41 WZW 993,7 5
22.02.2017 02:00:00 8,1 7,5 81 44 83 45 WZW 993,8 4,8
22.02.2017 01:00:00 8,9 6,9 78 42 79 43 ZW 993,8 9
22.02.2017 00:00:00 8,6 7,1 74 40 76 41 ZW 994,3 8
21.02.2017 23:00:00 8,3 7,3 68 37 68 37 ZW 995,8 5
21.02.2017 22:00:00 7,5 6,7 59 32 61 33 ZZW 997,4 3,1
21.02.2017 21:00:00 7,1 5,8 55 30 58 31 ZZW 999,7 7
21.02.2017 20:00:00 7,0 4,6 46 25 50 27 ZZW 1001,8 10
21.02.2017 19:00:00 6,6 3,8 42 23 43 23 ZZW 1003,9 10
21.02.2017 18:00:00 6,4 4,2 44 24 43 23 ZZW 1005,4 10
21.02.2017 17:00:00 6,1 4,5 39 21 36 19 ZW 1006,4 10
21.02.2017 16:00:00 6,1 4,3 39 21 40 21 WZW 1007,6 10
21.02.2017 15:00:00 6,1 4,5 39 21 40 21 WZW 1008,7 10
21.02.2017 14:00:00 6,2 4,4 34 18 32 18 WZW 1009,4 9
21.02.2017 13:00:00 6,4 4,2 39 21 36 19 WNW 1010,0 10
21.02.2017 12:00:00 6,3 4,2 37 20 36 19 W 1010,2 9
21.02.2017 11:00:00 6,2 4,2 34 18 36 19 W 1009,9 9
21.02.2017 10:00:00 6,4 3,9 37 20 36 19 W 1009,7 10
21.02.2017 09:00:00 6,5 4,0 39 21 40 21 NW 1009,3 10
21.02.2017 08:00:00 6,6 4,3 41 22 43 23 NW 1008,5 10
21.02.2017 07:00:00 6,6 4,4 42 23 43 23 NW 1008,1 10
21.02.2017 06:00:00 6,7 4,3 42 23 43 23 NW 1007,8 9
21.02.2017 05:00:00 6,6 4,7 39 21 40 21 W 1007,5 8
21.02.2017 04:00:00 6,8 4,4 41 22 40 21 WNW 1007,4 10
21.02.2017 03:00:00 6,9 4,7 41 22 43 23 W 1007,7 10
21.02.2017 02:00:00 6,6 4,7 31 17 36 19 W 1007,8 5
21.02.2017 01:00:00 7,0 5,0 34 18 43 23 NW 1007,5 10
21.02.2017 00:00:00 7,3 4,9 44 24 43 23 NW 1007,2 10
20.02.2017 23:00:00 7,0 5,2 42 23 40 21 W 1007,1 10
20.02.2017 22:00:00 7,1 5,6 39 21 40 21 W 1007,2 9
20.02.2017 21:00:00 7,5 5,8 41 22 40 21 W 1007,2 10
20.02.2017 20:00:00 7,4 6,1 41 22 43 23 W 1006,8 8
20.02.2017 19:00:00 7,7 6,1 44 24 47 25 WNW 1006,5 9
20.02.2017 18:00:00 7,9 6,5 46 25 47 25 NW 1005,3 8
20.02.2017 17:00:00 7,8 6,4 52 28 58 31 W 1004,5 8
20.02.2017 16:00:00 8,5 6,9 54 29 54 29 WNW 1003,9 8
20.02.2017 15:00:00 8,4 6,9 59 32 65 35 W 1004,0 8
20.02.2017 14:00:00 9,1 7,1 65 35 72 39 WZW 1004,0 10
20.02.2017 13:00:00 9,1 7,1 65 35 65 35 W 1003,9 10
20.02.2017 12:00:00 8,5 6,9 63 34 61 33 WZW 1004,6 10
20.02.2017 11:00:00 8,5 7,1 54 29 58 31 W 1005,4 10
20.02.2017 10:00:00 7,3 6,4 44 24 47 25 WZW 1005,5 7
20.02.2017 09:00:00 7,4 6,6 48 26 47 25 W 1006,5 8
20.02.2017 08:00:00 7,5 6,7 44 24 47 25 WZW 1007,0 7
20.02.2017 07:00:00 7,4 6,6 48 26 47 25 W 1007,1 7
20.02.2017 06:00:00 7,6 6,5 50 27 50 27 WZW 1007,3 10
20.02.2017 05:00:00 7,5 6,2 52 28 54 29 WZW 1008,0 10
20.02.2017 04:00:00 7,3 5,9 52 28 54 29 WZW 1008,5 10
20.02.2017 03:00:00 7,2 5,8 54 29 50 27 ZW 1009,2 10
20.02.2017 02:00:00 7,1 5,7 54 29 50 27 ZW 1010,1 10
20.02.2017 01:00:00 7,2 5,6 48 26 47 25 ZW 1011,8 10
20.02.2017 00:00:00 7,2 5,5 48 26 47 25 ZW 1012,2 10
19.02.2017 23:00:00 7,2 5,4 46 25 47 25 ZW 1012,6 10
19.02.2017 22:00:00 6,8 5,4 42 23 40 21 ZW 1013,6 10
19.02.2017 21:00:00 6,6 5,4 35 19 36 19 WZW 1014,3 10
19.02.2017 20:00:00 6,4 5,6 34 18 32 18 WZW 1014,5 9
19.02.2017 19:00:00 6,1 5,5 29 16 25 14 WZW 1015,1 8
19.02.2017 18:00:00 6,3 5,7 28 15 29 16 W 1015,5 7
19.02.2017 17:00:00 6,2 5,4 26 14 25 14 WZW 1015,3 8
19.02.2017 16:00:00 6,4 5,7 26 14 29 16 W 1015,2 9
19.02.2017 15:00:00 6,4 5,6 34 18 32 18 W 1015,6 8
19.02.2017 14:00:00 6,3 5,5 31 17 29 16 W 1015,3 7
19.02.2017 13:00:00 6,4 5,3 28 15 29 16 W 1015,2 9
19.02.2017 12:00:00 6,6 5,5 28 15 36 19 W 1015,1 9
19.02.2017 11:00:00 6,6 5,4 35 19 36 19 WNW 1015,0 10
19.02.2017 10:00:00 6,9 5,1 37 20 40 21 WNW 1014,6 10
19.02.2017 09:00:00 6,8 5,0 41 22 40 21 W 1014,3 10
19.02.2017 08:00:00 6,8 5,2 41 22 40 21 WZW 1013,8 9
19.02.2017 07:00:00 7,0 5,4 39 21 43 23 WZW 1013,2 7
19.02.2017 06:00:00 6,9 5,4 44 24 43 23 WZW 1013,1 6
19.02.2017 05:00:00 6,7 5,4 48 26 50 27 WZW 1013,1 4,8
19.02.2017 04:00:00 7,2 5,8 50 27 50 27 WZW 1013,1 4,9
19.02.2017 03:00:00 7,2 5,8 52 28 50 27 WZW 1013,6 4,4
19.02.2017 02:00:00 7,0 5,7 50 27 50 27 ZW 1014,2 3,7
19.02.2017 01:00:00 7,1 5,7 54 29 54 29 ZW 1014,8 3,9
19.02.2017 00:00:00 6,9 5,7 52 28 50 27 ZW 1015,1 3,7
18.02.2017 23:00:00 6,8 5,7 52 28 54 29 ZW 1015,8 3,1
18.02.2017 22:00:00 6,4 5,5 52 28 54 29 ZW 1016,5 2,7
18.02.2017 21:00:00 6,2 5,3 52 28 54 29 ZZW 1016,8 2,8
18.02.2017 20:00:00 6,1 5,2 54 29 54 29 ZZW 1017,6 2,7
18.02.2017 19:00:00 5,7 4,9 54 29 54 29 ZZW 1017,5 0,7
18.02.2017 18:00:00 6,0 4,8 54 29 58 31 ZZW 1017,8 2,5
18.02.2017 17:00:00 6,1 4,6 54 29 54 29 ZZW 1018,3 4,1
18.02.2017 16:00:00 6,5 4,9 43 23 54 29 ZZW 1018,8 4,0
18.02.2017 15:00:00 6,9 5,1 50 27 50 27 ZZW 1019,0 7
18.02.2017 14:00:00 7,0 5,1 50 27 50 27 ZZW 1020,1 9
18.02.2017 13:00:00 6,3 5,3 41 22 43 23 ZZW 1020,9 5
18.02.2017 12:00:00 5,9 5,2 41 22 40 21 Z 1021,7 3,1
18.02.2017 11:00:00 5,4 4,9 42 23 40 21 Z 1022,1 1,4
18.02.2017 10:00:00 5,0 4,6 37 20 43 23 Z 1022,3 1,2
18.02.2017 09:00:00 4,6 4,3 34 18 32 18 Z 1022,6 0,6

tt = temperatuur
td = dauwpunt
ff = windsnelheid
fx = windstoten
dd = windrichting
ppp = luchtdruk
vv = zicht

Weerstations in de omgeving